Location: Trois-Rivi�res
(46.3500°N, 72.5500°W)
Time: 16:54:45
(UTC-04:00)

Envisat - Pass Details

Date: 09 October 2017
Orbit: 764 x 766 km, 98.2° (Epoch: 23 October)

Event Time Altitude Azimuth Distance (km) Brightness Sun altitude
Exits shadow 20:04:27 38° 120° (ESE) 1,157 3.4 -19.8°
Maximum altitude 20:05:59 52° 70° (ENE) 951 3.1 -20.0°
Drops below altitude 10° 20:10:55 10° 356° (N) 2,313 5.7 -20.9°
Sets 20:13:16 0° 351° (N) 3,244 6.5 -21.3°
